| time (UTC) | temp C | wind direction | speed KPH | gust KPH | rain 1hr cm | rain 24hr cm | rain mn cm | humidity % | barometer mb |
| 20260507112557 | 11 | 327 | 4.8 | 8.0 | 0.00 | 0.53 | 0.00 | 59 | 1012.4 |
| 20260507112035 | 11 | 287 | 3.2 | 4.8 | 0.00 | 0.53 | 0.00 | 60 | 1012.4 |
| 20260507111525 | 10 | 288 | 1.6 | 6.4 | 0.00 | 0.53 | 0.00 | 60 | 1012.4 |
| 20260507111044 | 10 | 288 | 1.6 | 8.0 | 0.00 | 0.53 | 0.00 | 60 | 1012.3 |
| 20260507110541 | 10 | 274 | 4.8 | 8.0 | 0.00 | 0.53 | 0.00 | 59 | 1012.2 |
| 20260507110037 | 10 | 290 | 3.2 | 4.8 | 0.00 | 0.53 | 0.00 | 61 | 1012.0 |
| 20260507105529 | 10 | 275 | 3.2 | 4.8 | 0.00 | 0.56 | 0.00 | 59 | 1012.1 |
| 20260507105025 | 10 | 297 | 3.2 | 4.8 | 0.00 | 0.56 | 0.00 | 59 | 1012.0 |
| 20260507104543 | 10 | 297 | 1.6 | 4.8 | 0.00 | 0.56 | 0.00 | 58 | 1012.0 |
| 20260507104034 | 10 | 297 | 1.6 | 6.4 | 0.00 | 0.56 | 0.00 | 58 | 1011.9 |
| 20260507103530 | 11 | 309 | 3.2 | 6.4 | 0.00 | 0.56 | 0.00 | 58 | 1011.9 |
| 20260507103025 | 11 | 297 | 0.0 | 3.2 | 0.00 | 0.56 | 0.00 | 59 | 1011.8 |
| 20260507102538 | 11 | 297 | 1.6 | 3.2 | 0.00 | 0.56 | 0.00 | 59 | 1011.7 |
| 20260507102041 | 11 | 297 | 0.0 | 4.8 | 0.00 | 0.56 | 0.00 | 58 | 1011.7 |
| 20260507101558 | 11 | 297 | 1.6 | 4.8 | 0.00 | 0.56 | 0.00 | 57 | 1011.6 |
| 20260507101033 | 11 | 289 | 1.6 | 6.4 | 0.00 | 0.56 | 0.00 | 57 | 1011.5 |
| 20260507100525 | 11 | 302 | 1.6 | 6.4 | 0.00 | 0.56 | 0.00 | 56 | 1011.5 |
| 20260507100044 | 11 | 290 | 3.2 | 4.8 | 0.00 | 0.56 | 0.00 | 57 | 1011.6 |
| 20260507095543 | 11 | 271 | 1.6 | 4.8 | 0.00 | 0.56 | 0.00 | 57 | 1011.5 |
| 20260507095104 | 11 | 316 | 1.6 | 9.7 | 0.00 | 0.56 | 0.00 | 56 | 1011.4 |
| 20260507094540 | 11 | 316 | 3.2 | 9.7 | 0.00 | 0.56 | 0.00 | 55 | 1011.4 |
| 20260507094059 | 11 | 316 | 3.2 | 9.7 | 0.00 | 0.56 | 0.00 | 54 | 1011.4 |
| 20260507093534 | 11 | 335 | 6.4 | 12.9 | 0.00 | 0.56 | 0.00 | 54 | 1011.5 |
| 20260507093026 | 11 | 316 | 8.0 | 12.9 | 0.00 | 0.56 | 0.00 | 54 | 1011.5 |
| 20260507092543 | 11 | 325 | 3.2 | 6.4 | 0.00 | 0.56 | 0.00 | 56 | 1011.4 |
| 20260507092034 | 11 | 315 | 1.6 | 6.4 | 0.00 | 0.56 | 0.00 | 56 | 1011.2 |
| 20260507091527 | 11 | 325 | 3.2 | 6.4 | 0.00 | 0.56 | 0.00 | 56 | 1011.2 |
| 20260507091105 | 11 | 306 | 1.6 | 6.4 | 0.00 | 0.56 | 0.00 | 56 | 1011.3 |
| 20260507090541 | 11 | 290 | 0.0 | 3.2 | 0.00 | 0.56 | 0.00 | 57 | 1011.2 |
| 20260507090043 | 11 | 290 | 0.0 | 4.8 | 0.00 | 0.56 | 0.00 | 57 | 1011.1 |
| 20260507085536 | 11 | 327 | 1.6 | 4.8 | 0.00 | 0.56 | 0.00 | 57 | 1011.0 |
| 20260507085030 | 11 | 327 | 3.2 | 8.0 | 0.00 | 0.56 | 0.00 | 56 | 1011.0 |
| 20260507084525 | 11 | 325 | 1.6 | 8.0 | 0.00 | 0.56 | 0.00 | 55 | 1011.0 |
| 20260507084044 | 11 | 322 | 3.2 | 4.8 | 0.00 | 0.56 | 0.00 | 56 | 1010.9 |
| 20260507083602 | 11 | 322 | 1.6 | 4.8 | 0.00 | 0.56 | 0.00 | 55 | 1011.0 |
| 20260507083040 | 11 | 347 | 1.6 | 4.8 | 0.00 | 0.56 | 0.00 | 54 | 1010.8 |
| 20260507082533 | 11 | 347 | 0.0 | 6.4 | 0.00 | 0.56 | 0.00 | 54 | 1010.9 |
| 20260507082028 | 11 | 347 | 0.0 | 6.4 | 0.00 | 0.56 | 0.00 | 54 | 1010.8 |
| 20260507081525 | 11 | 12 | 1.6 | 8.0 | 0.00 | 0.56 | 0.00 | 53 | 1011.0 |
| 20260507081043 | 11 | 5 | 3.2 | 16.1 | 0.00 | 0.56 | 0.00 | 53 | 1010.9 |
| 20260507080541 | 11 | 23 | 6.4 | 16.1 | 0.00 | 0.56 | 0.00 | 53 | 1011.0 |
| 20260507080035 | 11 | 344 | 1.6 | 8.0 | 0.00 | 0.56 | 0.00 | 55 | 1011.0 |
| 20260507075530 | 11 | 341 | 3.2 | 8.0 | 0.00 | 0.56 | 0.00 | 55 | 1011.1 |
| 20260507075027 | 11 | 11 | 3.2 | 9.7 | 0.00 | 0.56 | 0.00 | 56 | 1010.9 |
| 20260507074545 | 11 | 355 | 3.2 | 9.7 | 0.00 | 0.56 | 0.00 | 55 | 1011.0 |
| 20260507074042 | 11 | 351 | 3.2 | 6.4 | 0.00 | 0.56 | 0.00 | 55 | 1011.1 |
| 20260507073535 | 11 | 327 | 3.2 | 8.0 | 0.00 | 0.56 | 0.00 | 55 | 1011.0 |
| 20260507073030 | 11 | 345 | 1.6 | 9.7 | 0.00 | 0.56 | 0.00 | 55 | 1011.0 |
| 20260507072545 | 11 | 5 | 3.2 | 9.7 | 0.00 | 0.56 | 0.00 | 54 | 1011.0 |
| 20260507072044 | 12 | 12 | 3.2 | 12.9 | 0.00 | 0.56 | 0.00 | 55 | 1011.0 |
| 20260507071541 | 12 | 9 | 1.6 | 12.9 | 0.00 | 0.56 | 0.00 | 54 | 1011.0 |
| 20260507071041 | 12 | 355 | 4.8 | 14.5 | 0.00 | 0.56 | 0.00 | 55 | 1010.8 |
| 20260507070533 | 12 | 360 | 6.4 | 14.5 | 0.00 | 0.56 | 0.00 | 55 | 1011.0 |
| 20260507070026 | 12 | 360 | 6.4 | 14.5 | 0.00 | 0.56 | 0.00 | 56 | 1011.1 |
| 20260507065542 | 12 | 5 | 6.4 | 19.3 | 0.00 | 0.56 | 0.00 | 57 | 1011.2 |
| 20260507065041 | 12 | 325 | 6.4 | 19.3 | 0.00 | 0.56 | 0.00 | 58 | 1011.0 |
| 20260507064538 | 12 | 346 | 8.0 | 19.3 | 0.00 | 0.56 | 0.00 | 60 | 1011.0 |
| 20260507064033 | 12 | 14 | 8.0 | 19.3 | 0.00 | 0.56 | 0.00 | 62 | 1010.9 |
| 20260507063527 | 12 | 308 | 9.7 | 19.3 | 0.00 | 0.56 | 0.00 | 64 | 1010.9 |
| 20260507063044 | 12 | 306 | 6.4 | 16.1 | 0.00 | 0.56 | 0.00 | 66 | 1010.9 |
| 20260507062538 | 12 | 5 | 6.4 | 19.3 | 0.00 | 0.56 | 0.00 | 66 | 1011.0 |
| 20260507062054 | 12 | 315 | 9.7 | 19.3 | 0.00 | 0.56 | 0.00 | 67 | 1011.1 |
| 20260507061524 | 12 | 355 | 6.4 | 16.1 | 0.00 | 0.56 | 0.00 | 69 | 1011.1 |
| 20260507061044 | 12 | 325 | 4.8 | 16.1 | 0.00 | 0.56 | 0.00 | 70 | 1011.1 |
| 20260507060601 | 12 | 326 | 6.4 | 16.1 | 0.00 | 0.56 | 0.00 | 69 | 1011.1 |
| 20260507060036 | 12 | 355 | 6.4 | 17.7 | 0.00 | 0.56 | 0.00 | 70 | 1011.0 |
| 20260507055554 | 12 | 350 | 8.0 | 17.7 | 0.00 | 0.56 | 0.00 | 70 | 1011.0 |
| 20260507055031 | 12 | 348 | 8.0 | 16.1 | 0.00 | 0.56 | 0.00 | 70 | 1011.0 |
| 20260507054544 | 12 | 348 | 6.4 | 16.1 | 0.00 | 0.56 | 0.00 | 70 | 1010.9 |
| 20260507054044 | 12 | 336 | 6.4 | 14.5 | 0.00 | 0.56 | 0.00 | 70 | 1010.7 |
| 20260507053543 | 12 | 350 | 4.8 | 14.5 | 0.00 | 0.56 | 0.00 | 70 | 1010.8 |
| 20260507053040 | 12 | 350 | 4.8 | 14.5 | 0.00 | 0.56 | 0.00 | 70 | 1010.9 |
| 20260507052532 | 12 | 34 | 4.8 | 12.9 | 0.00 | 0.56 | 0.00 | 70 | 1010.9 |
| 20260507052025 | 12 | 13 | 6.4 | 12.9 | 0.00 | 0.56 | 0.00 | 70 | 1010.9 |
| 20260507051535 | 12 | 355 | 6.4 | 9.7 | 0.00 | 0.56 | 0.00 | 69 | 1010.8 |
| 20260507051028 | 12 | 5 | 3.2 | 12.9 | 0.00 | 0.56 | 0.00 | 69 | 1010.9 |
| 20260507050540 | 12 | 5 | 6.4 | 14.5 | 0.00 | 0.56 | 0.00 | 68 | 1010.8 |
| 20260507050035 | 12 | 18 | 4.8 | 17.7 | 0.00 | 0.56 | 0.00 | 68 | 1010.8 |
| 20260507045527 | 13 | 360 | 9.7 | 17.7 | 0.00 | 0.56 | 0.00 | 67 | 1010.9 |
| 20260507045047 | 13 | 15 | 8.0 | 22.5 | 0.00 | 0.56 | 0.00 | 68 | 1010.9 |
| 20260507044605 | 13 | 19 | 6.4 | 22.5 | 0.00 | 0.56 | 0.00 | 67 | 1011.0 |
| 20260507044041 | 13 | 342 | 9.7 | 19.3 | 0.00 | 0.56 | 0.00 | 67 | 1010.9 |
| 20260507043559 | 13 | 355 | 6.4 | 19.3 | 0.00 | 0.56 | 0.00 | 67 | 1010.8 |
| 20260507043032 | 13 | 5 | 9.7 | 17.7 | 0.00 | 0.56 | 0.00 | 67 | 1010.8 |
| 20260507042525 | 13 | 350 | 8.0 | 17.7 | 0.00 | 0.56 | 0.00 | 68 | 1010.9 |
| 20260507042039 | 13 | 326 | 6.4 | 19.3 | 0.00 | 0.56 | 0.00 | 68 | 1011.0 |
| 20260507041556 | 13 | 342 | 8.0 | 19.3 | 0.00 | 0.56 | 0.00 | 68 | 1011.1 |
| 20260507041054 | 13 | 9 | 8.0 | 20.9 | 0.00 | 0.56 | 0.00 | 69 | 1011.0 |
| 20260507040524 | 13 | 355 | 9.7 | 24.1 | 0.00 | 0.56 | 0.00 | 69 | 1011.0 |
| 20260507040044 | 13 | 351 | 16.1 | 24.1 | 0.00 | 0.56 | 0.00 | 69 | 1011.2 |
| 20260507035541 | 13 | 333 | 12.9 | 22.5 | 0.00 | 0.56 | 0.56 | 70 | 1011.1 |
| 20260507035040 | 13 | 340 | 9.7 | 22.5 | 0.00 | 0.56 | 0.56 | 70 | 1010.9 |
| 20260507034537 | 13 | 319 | 8.0 | 29.0 | 0.00 | 0.56 | 0.56 | 70 | 1010.8 |
| 20260507034033 | 13 | 337 | 14.5 | 29.0 | 0.00 | 0.56 | 0.56 | 70 | 1010.8 |
| 20260507033550 | 13 | 345 | 14.5 | 27.4 | 0.00 | 0.56 | 0.56 | 71 | 1010.7 |
| 20260507033049 | 13 | 311 | 12.9 | 24.1 | 0.00 | 0.56 | 0.56 | 71 | 1010.8 |
| 20260507032542 | 13 | 327 | 14.5 | 24.1 | 0.00 | 0.56 | 0.56 | 72 | 1010.8 |
| 20260507032036 | 13 | 327 | 14.5 | 22.5 | 0.00 | 0.56 | 0.56 | 73 | 1010.9 |
| 20260507031528 | 13 | 348 | 11.3 | 16.1 | 0.00 | 0.56 | 0.56 | 73 | 1011.0 |
| 20260507031045 | 13 | 343 | 8.0 | 14.5 | 0.00 | 0.56 | 0.56 | 74 | 1011.2 |
| 20260507030539 | 13 | 344 | 3.2 | 14.5 | 0.00 | 0.56 | 0.56 | 75 | 1010.9 |
| 20260507030034 | 13 | 321 | 8.0 | 12.9 | 0.00 | 0.56 | 0.56 | 76 | 1011.2 |
| 20260507025525 | 13 | 347 | 4.8 | 12.9 | 0.00 | 0.56 | 0.56 | 76 | 1010.9 |
| 20260507025105 | 13 | 310 | 8.0 | 12.9 | 0.00 | 0.56 | 0.56 | 76 | 1010.9 |
| 20260507024539 | 13 | 317 | 6.4 | 11.3 | 0.00 | 0.56 | 0.56 | 76 | 1011.0 |
| 20260507024032 | 13 | 281 | 3.2 | 17.7 | 0.00 | 0.56 | 0.56 | 76 | 1011.0 |
| 20260507023525 | 13 | 272 | 6.4 | 17.7 | 0.00 | 0.56 | 0.56 | 76 | 1010.3 |
| 20260507023037 | 13 | 13 | 6.4 | 17.7 | 0.00 | 0.56 | 0.56 | 76 | 1010.6 |
| 20260507022529 | 13 | 338 | 6.4 | 25.7 | 0.00 | 0.56 | 0.56 | 76 | 1010.8 |
| 20260507022048 | 13 | 295 | 6.4 | 25.7 | 0.00 | 0.56 | 0.56 | 76 | 1010.9 |
| 20260507021544 | 13 | 355 | 11.3 | 25.7 | 0.00 | 0.56 | 0.56 | 76 | 1011.0 |
| 20260507021041 | 13 | 324 | 16.1 | 25.7 | 0.00 | 0.56 | 0.56 | 76 | 1010.8 |
| 20260507020541 | 13 | 291 | 11.3 | 25.7 | 0.00 | 0.56 | 0.56 | 76 | 1010.9 |
| 20260507020040 | 13 | 321 | 17.7 | 29.0 | 0.00 | 0.56 | 0.56 | 76 | 1010.5 |
| 20260507015600 | 14 | 307 | 20.9 | 29.0 | 0.00 | 0.56 | 0.56 | 76 | 1010.4 |
| 20260507015057 | 14 | 323 | 16.1 | 27.4 | 0.00 | 0.56 | 0.56 | 76 | 1010.4 |
| 20260507014533 | 14 | 331 | 14.5 | 22.5 | 0.00 | 0.56 | 0.56 | 77 | 1010.4 |
| 20260507014024 | 14 | 299 | 12.9 | 27.4 | 0.00 | 0.56 | 0.56 | 77 | 1010.3 |
| 20260507013538 | 14 | 306 | 12.9 | 27.4 | 0.00 | 0.56 | 0.56 | 76 | 1010.5 |
| 20260507013041 | 14 | 315 | 9.7 | 19.3 | 0.00 | 0.56 | 0.56 | 77 | 1010.5 |
| 20260507012533 | 14 | 304 | 4.8 | 12.9 | 0.00 | 0.56 | 0.56 | 77 | 1010.4 |
| 20260507012026 | 14 | 290 | 6.4 | 14.5 | 0.00 | 0.56 | 0.56 | 76 | 1010.6 |
| 20260507011544 | 14 | 288 | 9.7 | 14.5 | 0.00 | 0.56 | 0.56 | 76 | 1010.6 |
| 20260507011043 | 15 | 300 | 6.4 | 16.1 | 0.00 | 0.56 | 0.56 | 76 | 1010.5 |
| 20260507010540 | 15 | 279 | 4.8 | 17.7 | 0.00 | 0.56 | 0.56 | 76 | 1010.5 |
| 20260507010034 | 15 | 299 | 9.7 | 17.7 | 0.00 | 0.56 | 0.56 | 76 | 1010.5 |
| 20260507005525 | 15 | 284 | 6.4 | 14.5 | 0.00 | 0.56 | 0.56 | 76 | 1010.7 |
| 20260507005104 | 15 | 260 | 6.4 | 14.5 | 0.00 | 0.56 | 0.56 | 76 | 1010.9 |
| 20260507004535 | 15 | 282 | 8.0 | 14.5 | 0.00 | 0.56 | 0.56 | 75 | 1010.6 |
| 20260507004029 | 15 | 284 | 8.0 | 16.1 | 0.00 | 0.56 | 0.56 | 76 | 1010.5 |
| 20260507003545 | 15 | 259 | 8.0 | 20.9 | 0.00 | 0.56 | 0.56 | 75 | 1010.5 |
| 20260507003043 | 15 | 294 | 8.0 | 20.9 | 0.00 | 0.56 | 0.56 | 75 | 1010.4 |
| 20260507002540 | 15 | 286 | 9.7 | 19.3 | 0.00 | 0.56 | 0.56 | 75 | 1010.2 |
| 20260507002041 | 15 | 298 | 11.3 | 19.3 | 0.00 | 0.56 | 0.56 | 75 | 1010.0 |
| 20260507001533 | 15 | 295 | 9.7 | 17.7 | 0.00 | 0.56 | 0.56 | 75 | 1010.1 |
| 20260507001032 | 15 | 306 | 4.8 | 19.3 | 0.00 | 0.56 | 0.56 | 76 | 1009.9 |
| 20260507000527 | 16 | 329 | 8.0 | 22.5 | 0.00 | 0.56 | 0.56 | 75 | 1010.0 |
| 20260507000045 | 16 | 282 | 11.3 | 22.5 | 0.00 | 0.56 | 0.56 | 76 | 1010.1 |
| 20260506235540 | 16 | 292 | 11.3 | 22.5 | 0.00 | 0.56 | 0.56 | 75 | 1010.0 |
| 20260506235040 | 16 | 295 | 6.4 | 22.5 | 0.00 | 0.56 | 0.56 | 75 | 1009.6 |
| 20260506234525 | 16 | 297 | 11.3 | 25.7 | 0.00 | 0.56 | 0.56 | 75 | 1009.6 |
| 20260506234042 | 16 | 306 | 12.9 | 25.7 | 0.00 | 0.56 | 0.56 | 75 | 1009.1 |
| 20260506233533 | 16 | 323 | 11.3 | 14.5 | 0.00 | 0.56 | 0.56 | 76 | 1009.0 |
| 20260506233049 | 16 | 302 | 4.8 | 16.1 | 0.00 | 0.56 | 0.56 | 76 | 1009.1 |
| 20260506232539 | 16 | 259 | 6.4 | 16.1 | 0.00 | 0.56 | 0.56 | 75 | 1008.9 |
| 20260506232057 | 16 | 258 | 8.0 | 17.7 | 0.00 | 0.56 | 0.56 | 74 | 1008.8 |
| 20260506231528 | 16 | 309 | 8.0 | 17.7 | 0.00 | 0.56 | 0.56 | 75 | 1008.8 |
| 20260506231043 | 17 | 309 | 6.4 | 19.3 | 0.00 | 0.56 | 0.56 | 75 | 1008.8 |
| 20260506230601 | 17 | 294 | 9.7 | 19.3 | 0.00 | 0.56 | 0.56 | 75 | 1008.8 |
| 20260506230059 | 17 | 321 | 9.7 | 16.1 | 0.00 | 0.56 | 0.56 | 75 | 1008.8 |
| 20260506225528 | 17 | 277 | 8.0 | 16.1 | 0.00 | 0.56 | 0.56 | 76 | 1008.8 |
| 20260506225045 | 17 | 305 | 6.4 | 14.5 | 0.00 | 0.56 | 0.56 | 77 | 1008.7 |
| 20260506224544 | 17 | 293 | 3.2 | 14.5 | 0.00 | 0.56 | 0.56 | 77 | 1008.7 |
| 20260506224042 | 17 | 315 | 4.8 | 17.7 | 0.00 | 0.56 | 0.56 | 76 | 1008.6 |
| 20260506223540 | 17 | 282 | 11.3 | 17.7 | 0.00 | 0.56 | 0.56 | 76 | 1008.6 |
| 20260506223039 | 17 | 269 | 6.4 | 20.9 | 0.00 | 0.56 | 0.56 | 76 | 1008.6 |
| 20260506222556 | 17 | 298 | 11.3 | 20.9 | 0.00 | 0.56 | 0.56 | 76 | 1008.4 |
| 20260506222029 | 17 | 295 | 8.0 | 19.3 | 0.00 | 0.56 | 0.56 | 77 | 1008.4 |
| 20260506221548 | 17 | 290 | 9.7 | 19.3 | 0.00 | 0.56 | 0.56 | 77 | 1008.3 |
| 20260506221038 | 17 | 296 | 9.7 | 17.7 | 0.03 | 0.56 | 0.56 | 78 | 1008.4 |
| 20260506220540 | 17 | 304 | 6.4 | 17.7 | 0.03 | 0.56 | 0.56 | 79 | 1008.2 |
| 20260506220036 | 17 | 294 | 8.0 | 19.3 | 0.03 | 0.56 | 0.56 | 79 | 1008.1 |
| 20260506215552 | 17 | 275 | 9.7 | 24.1 | 0.03 | 0.56 | 0.56 | 80 | 1008.1 |
| 20260506215025 | 17 | 296 | 11.3 | 24.1 | 0.03 | 0.56 | 0.56 | 82 | 1008.0 |
| 20260506214542 | 18 | 297 | 8.0 | 20.9 | 0.03 | 0.56 | 0.56 | 84 | 1007.9 |
| 20260506214042 | 18 | 278 | 8.0 | 20.9 | 0.03 | 0.56 | 0.56 | 84 | 1007.8 |
| 20260506213532 | 18 | 273 | 8.0 | 16.1 | 0.03 | 0.56 | 0.56 | 86 | 1007.8 |
| 20260506213027 | 18 | 260 | 6.4 | 17.7 | 0.03 | 0.56 | 0.56 | 86 | 1007.7 |
| 20260506212604 | 18 | 256 | 8.0 | 17.7 | 0.03 | 0.56 | 0.56 | 85 | 1007.6 |
| 20260506212039 | 18 | 239 | 9.7 | 16.1 | 0.03 | 0.56 | 0.56 | 85 | 1007.6 |
| 20260506211530 | 18 | 261 | 6.4 | 17.7 | 0.03 | 0.56 | 0.56 | 84 | 1007.5 |
| 20260506211025 | 18 | 230 | 8.0 | 14.5 | 0.00 | 0.53 | 0.53 | 84 | 1007.3 |
| 20260506210543 | 18 | 269 | 6.4 | 14.5 | 0.00 | 0.53 | 0.53 | 84 | 1007.2 |
| 20260506210038 | 18 | 233 | 3.2 | 14.5 | 0.00 | 0.53 | 0.53 | 84 | 1007.1 |
| 20260506205529 | 18 | 217 | 4.8 | 14.5 | 0.00 | 0.53 | 0.53 | 84 | 1007.1 |
| 20260506205026 | 18 | 229 | 1.6 | 16.1 | 0.00 | 0.53 | 0.53 | 82 | 1007.0 |
| 20260506204543 | 19 | 244 | 8.0 | 16.1 | 0.00 | 0.53 | 0.53 | 82 | 1007.1 |
| 20260506204041 | 19 | 185 | 6.4 | 16.1 | 0.00 | 0.53 | 0.53 | 81 | 1007.0 |
| 20260506203538 | 19 | 240 | 6.4 | 16.1 | 0.00 | 0.53 | 0.53 | 82 | 1007.0 |
| 20260506203043 | 19 | 246 | 4.8 | 11.3 | 0.00 | 0.53 | 0.53 | 82 | 1006.9 |
| 20260506202535 | 19 | 197 | 6.4 | 14.5 | 0.00 | 0.53 | 0.53 | 81 | 1006.8 |
| 20260506202030 | 20 | 128 | 4.8 | 14.5 | 0.00 | 0.53 | 0.53 | 80 | 1006.8 |
| 20260506201547 | 20 | 226 | 3.2 | 16.1 | 0.00 | 0.53 | 0.53 | 80 | 1006.8 |
| 20260506201044 | 20 | 226 | 3.2 | 16.1 | 0.00 | 0.53 | 0.53 | 82 | 1006.8 |
| 20260506200541 | 20 | 215 | 6.4 | 16.1 | 0.00 | 0.53 | 0.53 | 82 | 1006.8 |
| 20260506200058 | 20 | 218 | 6.4 | 16.1 | 0.00 | 0.53 | 0.53 | 81 | 1006.8 |
| 20260506195529 | 20 | 194 | 8.0 | 16.1 | 0.00 | 0.53 | 0.53 | 83 | 1006.9 |
| 20260506195026 | 20 | 246 | 6.4 | 19.3 | 0.00 | 0.53 | 0.53 | 84 | 1007.0 |
| 20260506194603 | 19 | 219 | 4.8 | 19.3 | 0.00 | 0.53 | 0.53 | 84 | 1007.0 |
| 20260506194036 | 19 | 181 | 6.4 | 19.3 | 0.00 | 0.53 | 0.53 | 84 | 1007.0 |
| 20260506193552 | 19 | 191 | 8.0 | 17.7 | 0.00 | 0.53 | 0.53 | 88 | 1007.0 |
| 20260506193026 | 18 | 207 | 6.4 | 19.3 | 0.00 | 0.53 | 0.53 | 89 | 1007.0 |
| 20260506192544 | 18 | 193 | 14.5 | 19.3 | 0.00 | 0.53 | 0.53 | 89 | 1006.9 |
| 20260506192042 | 18 | 171 | 14.5 | 17.7 | 0.00 | 0.53 | 0.53 | 90 | 1006.7 |
| 20260506191539 | 18 | 167 | 11.3 | 14.5 | 0.00 | 0.53 | 0.53 | 90 | 1006.9 |
| 20260506191032 | 18 | 234 | 8.0 | 14.5 | 0.00 | 0.53 | 0.53 | 90 | 1007.1 |
| 20260506190525 | 17 | 198 | 4.8 | 14.5 | 0.00 | 0.53 | 0.53 | 90 | 1007.3 |
| 20260506190045 | 17 | 206 | 9.7 | 14.5 | 0.00 | 0.53 | 0.53 | 89 | 1007.2 |
| 20260506185539 | 17 | 222 | 6.4 | 12.9 | 0.00 | 0.53 | 0.53 | 89 | 1007.3 |
| 20260506185035 | 17 | 200 | 3.2 | 14.5 | 0.00 | 0.53 | 0.53 | 90 | 1007.3 |
| 20260506184532 | 17 | 199 | 3.2 | 14.5 | 0.00 | 0.53 | 0.53 | 89 | 1007.4 |
| 20260506184027 | 17 | 182 | 4.8 | 16.1 | 0.00 | 0.53 | 0.53 | 89 | 1007.5 |
| 20260506183544 | 17 | 178 | 3.2 | 17.7 | 0.00 | 0.53 | 0.53 | 89 | 1007.4 |
| 20260506183044 | 17 | 196 | 6.4 | 19.3 | 0.00 | 0.53 | 0.53 | 89 | 1007.6 |
| 20260506182542 | 17 | 218 | 6.4 | 19.3 | 0.00 | 0.53 | 0.53 | 89 | 1007.7 |
| 20260506182037 | 17 | 213 | 11.3 | 17.7 | 0.00 | 0.53 | 0.53 | 88 | 1007.6 |
| 20260506181530 | 17 | 182 | 6.4 | 17.7 | 0.00 | 0.53 | 0.53 | 88 | 1007.6 |
| 20260506181025 | 18 | 211 | 6.4 | 17.7 | 0.00 | 0.53 | 0.53 | 87 | 1007.7 |
| 20260506180542 | 18 | 266 | 6.4 | 17.7 | 0.00 | 0.53 | 0.53 | 86 | 1007.7 |
| 20260506175535 | 18 | 204 | 9.7 | 20.9 | 0.00 | 0.53 | 0.53 | 84 | 1007.5 |
| 20260506175026 | 18 | 233 | 11.3 | 22.5 | 0.00 | 0.53 | 0.53 | 84 | 1007.5 |
| 20260506174542 | 18 | 215 | 9.7 | 22.5 | 0.00 | 0.53 | 0.53 | 84 | 1007.4 |
| 20260506174038 | 18 | 200 | 9.7 | 17.7 | 0.00 | 0.53 | 0.53 | 84 | 1007.3 |
| 20260506173531 | 18 | 192 | 11.3 | 20.9 | 0.00 | 0.53 | 0.53 | 85 | 1007.4 |
| 20260506173026 | 18 | 186 | 9.7 | 20.9 | 0.00 | 0.53 | 0.53 | 85 | 1007.4 |
| 20260506172542 | 18 | 198 | 12.9 | 20.9 | 0.00 | 0.53 | 0.53 | 85 | 1007.3 |
| 20260506172039 | 18 | 192 | 11.3 | 20.9 | 0.00 | 0.53 | 0.53 | 85 | 1007.3 |
| 20260506171532 | 18 | 179 | 9.7 | 22.5 | 0.00 | 0.53 | 0.53 | 85 | 1007.4 |
| 20260506171025 | 17 | 185 | 11.3 | 20.9 | 0.00 | 0.53 | 0.53 | 85 | 1007.3 |
| 20260506170544 | 17 | 196 | 16.1 | 20.9 | 0.00 | 0.53 | 0.53 | 85 | 1007.3 |
| 20260506170044 | 17 | 196 | 11.3 | 20.9 | 0.00 | 0.53 | 0.53 | 86 | 1007.3 |
| 20260506165537 | 17 | 188 | 11.3 | 20.9 | 0.00 | 0.53 | 0.53 | 86 | 1007.3 |
| 20260506165033 | 17 | 210 | 9.7 | 19.3 | 0.00 | 0.53 | 0.53 | 86 | 1007.3 |
| 20260506164525 | 17 | 182 | 11.3 | 19.3 | 0.00 | 0.53 | 0.53 | 87 | 1007.5 |
| 20260506164045 | 17 | 219 | 9.7 | 17.7 | 0.00 | 0.53 | 0.53 | 87 | 1007.5 |
| 20260506163540 | 17 | 188 | 8.0 | 19.3 | 0.00 | 0.53 | 0.53 | 87 | 1007.4 |
| 20260506163036 | 17 | 186 | 9.7 | 19.3 | 0.00 | 0.53 | 0.53 | 87 | 1007.4 |
| 20260506162528 | 17 | 223 | 8.0 | 19.3 | 0.00 | 0.53 | 0.53 | 87 | 1007.5 |
| 20260506162047 | 17 | 229 | 8.0 | 19.3 | 0.00 | 0.53 | 0.53 | 87 | 1007.4 |
| 20260506161546 | 17 | 215 | 6.4 | 20.9 | 0.00 | 0.53 | 0.53 | 87 | 1007.4 |
| 20260506161045 | 17 | 200 | 14.5 | 20.9 | 0.00 | 0.53 | 0.53 | 87 | 1007.4 |
| 20260506160542 | 17 | 220 | 12.9 | 22.5 | 0.00 | 0.53 | 0.53 | 88 | 1007.5 |
| 20260506160045 | 17 | 199 | 14.5 | 33.8 | 0.00 | 0.53 | 0.53 | 88 | 1007.4 |
| 20260506155538 | 17 | 184 | 17.7 | 33.8 | 0.00 | 0.53 | 0.53 | 88 | 1007.3 |
| 20260506155040 | 17 | 175 | 20.9 | 33.8 | 0.00 | 0.53 | 0.53 | 88 | 1007.3 |
| 20260506154541 | 17 | 196 | 17.7 | 32.2 | 0.00 | 0.53 | 0.53 | 90 | 1007.3 |
| 20260506154037 | 16 | 162 | 22.5 | 33.8 | 0.00 | 0.53 | 0.53 | 90 | 1007.2 |
| 20260506153556 | 16 | 184 | 16.1 | 27.4 | 0.00 | 0.53 | 0.53 | 91 | 1006.9 |
| 20260506153031 | 16 | 190 | 17.7 | 25.7 | 0.03 | 0.53 | 0.53 | 91 | 1007.0 |
| 20260506152525 | 16 | 178 | 14.5 | 25.7 | 0.05 | 0.53 | 0.53 | 91 | 1007.1 |
| 20260506152044 | 16 | 180 | 20.9 | 25.7 | 0.10 | 0.53 | 0.53 | 91 | 1007.0 |
| 20260506151544 | 16 | 180 | 16.1 | 32.2 | 0.13 | 0.53 | 0.53 | 91 | 1007.1 |
| 20260506151104 | 16 | 177 | 17.7 | 32.2 | 0.15 | 0.53 | 0.53 | 92 | 1007.2 |
| 20260506150534 | 16 | 180 | 20.9 | 27.4 | 0.18 | 0.53 | 0.53 | 92 | 1007.1 |
| 20260506150031 | 16 | 156 | 20.9 | 24.1 | 0.20 | 0.53 | 0.53 | 92 | 1006.9 |
| 20260506145550 | 16 | 182 | 17.7 | 24.1 | 0.23 | 0.53 | 0.53 | 92 | 1006.7 |
| 20260506145026 | 16 | 175 | 16.1 | 24.1 | 0.25 | 0.53 | 0.53 | 92 | 1006.8 |
| 20260506144540 | 16 | 163 | 19.3 | 25.7 | 0.25 | 0.53 | 0.53 | 91 | 1006.8 |
| 20260506144037 | 16 | 176 | 19.3 | 25.7 | 0.28 | 0.53 | 0.53 | 91 | 1007.0 |
| 20260506143531 | 16 | 171 | 17.7 | 24.1 | 0.28 | 0.51 | 0.51 | 91 | 1007.3 |
| 20260506143027 | 15 | 164 | 17.7 | 27.4 | 0.33 | 0.51 | 0.51 | 91 | 1007.4 |
| 20260506142547 | 15 | 171 | 16.1 | 22.5 | 0.28 | 0.46 | 0.46 | 90 | 1007.5 |
| 20260506142044 | 15 | 164 | 19.3 | 25.7 | 0.28 | 0.43 | 0.43 | 90 | 1007.6 |
| 20260506141541 | 16 | 167 | 17.7 | 30.6 | 0.25 | 0.41 | 0.41 | 90 | 1007.9 |
| 20260506141038 | 16 | 188 | 19.3 | 24.1 | 0.20 | 0.36 | 0.36 | 89 | 1008.1 |
| 20260506140557 | 16 | 186 | 16.1 | 24.1 | 0.20 | 0.36 | 0.36 | 89 | 1008.0 |
| 20260506140040 | 16 | 228 | 16.1 | 25.7 | 0.20 | 0.33 | 0.33 | 88 | 1008.0 |
| 20260506135533 | 16 | 173 | 16.1 | 22.5 | 0.18 | 0.30 | 0.30 | 88 | 1007.8 |
| 20260506135025 | 16 | 179 | 14.5 | 24.1 | 0.18 | 0.28 | 0.28 | 88 | 1007.9 |
| 20260506134605 | 16 | 179 | 17.7 | 29.0 | 0.18 | 0.28 | 0.28 | 87 | 1007.8 |
| 20260506134043 | 16 | 184 | 14.5 | 25.7 | 0.15 | 0.25 | 0.25 | 87 | 1007.7 |
| 20260506133541 | 16 | 197 | 16.1 | 25.7 | 0.13 | 0.23 | 0.23 | 86 | 1007.6 |
| 20260506133036 | 16 | 213 | 17.7 | 25.7 | 0.08 | 0.18 | 0.18 | 86 | 1007.7 |
| 20260506132530 | 16 | 194 | 17.7 | 25.7 | 0.08 | 0.18 | 0.18 | 86 | 1007.6 |
| 20260506132047 | 16 | 190 | 14.5 | 27.4 | 0.05 | 0.15 | 0.15 | 86 | 1007.6 |
| 20260506131536 | 16 | 144 | 19.3 | 27.4 | 0.05 | 0.15 | 0.15 | 85 | 1007.6 |
| 20260506131027 | 16 | 186 | 14.5 | 22.5 | 0.08 | 0.15 | 0.15 | 86 | 1007.5 |
| 20260506130541 | 16 | 164 | 16.1 | 22.5 | 0.08 | 0.15 | 0.15 | 85 | 1007.5 |
| 20260506130036 | 16 | 170 | 14.5 | 20.9 | 0.05 | 0.13 | 0.13 | 84 | 1007.6 |
| 20260506125530 | 16 | 187 | 14.5 | 22.5 | 0.05 | 0.13 | 0.13 | 84 | 1007.5 |
| 20260506125029 | 16 | 160 | 12.9 | 19.3 | 0.03 | 0.10 | 0.10 | 84 | 1007.5 |
| 20260506124547 | 16 | 147 | 16.1 | 19.3 | 0.03 | 0.10 | 0.10 | 83 | 1007.4 |
| 20260506124044 | 16 | 185 | 12.9 | 24.1 | 0.03 | 0.10 | 0.10 | 83 | 1007.4 |
| 20260506123543 | 16 | 158 | 12.9 | 24.1 | 0.03 | 0.10 | 0.10 | 83 | 1007.3 |
| 20260506123044 | 16 | 180 | 17.7 | 25.7 | 0.03 | 0.10 | 0.10 | 84 | 1007.4 |
| 20260506122537 | 16 | 155 | 17.7 | 25.7 | 0.03 | 0.10 | 0.10 | 84 | 1007.3 |
| 20260506122035 | 16 | 180 | 17.7 | 20.9 | 0.05 | 0.10 | 0.10 | 84 | 1007.3 |
| 20260506121531 | 16 | 165 | 16.1 | 19.3 | 0.05 | 0.10 | 0.10 | 83 | 1007.8 |
| 20260506121025 | 16 | 166 | 12.9 | 17.7 | 0.03 | 0.08 | 0.08 | 83 | 1007.8 |
| 20260506120542 | 16 | 172 | 12.9 | 19.3 | 0.05 | 0.08 | 0.08 | 83 | 1007.8 |
| 20260506120037 | 16 | 188 | 14.5 | 19.3 | 0.05 | 0.08 | 0.08 | 82 | 1007.7 |
| 20260506115555 | 16 | 190 | 12.9 | 25.7 | 0.05 | 0.08 | 0.08 | 82 | 1007.7 |
| 20260506115027 | 16 | 166 | 14.5 | 27.4 | 0.08 | 0.08 | 0.08 | 81 | 1007.7 |
| 20260506114539 | 16 | 176 | 16.1 | 24.1 | 0.08 | 0.08 | 0.08 | 80 | 1007.8 |
| 20260506114040 | 16 | 173 | 16.1 | 25.7 | 0.08 | 0.08 | 0.08 | 80 | 1007.8 |
| 20260506113527 | 16 | 185 | 14.5 | 25.7 | 0.08 | 0.08 | 0.08 | 79 | 1008.0 |
| 20260506113046 | 16 | 197 | 14.5 | 22.5 | 0.08 | 0.08 | 0.08 | 79 | 1008.0 |